Weather History for Rutland, VT

Change the Weather History Date:

Friday, November 9, 2012

  Actual Average Record
Temperature  
Mean Temperature 36 °F -  
Max Temperature 45 °F - 71 °F (1975)
Min Temperature 27 °F - 12 °F (1971)
Degree Days  
Heating Degree Days 29    
Month to date heating degree days 266  
Since 1 July heating degree days 901  
Cooling Degree Days 0    
Month to date cooling degree days 0  
Year to date cooling degree days 411  
Moisture  
Dew Point 25 °F    
Average Humidity 63    
Maximum Humidity 85    
Minimum Humidity 40    
Precipitation  
Precipitation 0.00 in - 1.32 in (2005)
Month to date precipitation 0.00  
Year to date precipitation 21.48  
Sea Level Pressure  
Sea Level Pressure 30.02 in    
Wind  
Wind Speed 5 mph (NNW)    
Max Wind Speed 10 mph    
Max Gust Speed 16 mph    
Visibility 10 miles    
Events      
T = Trace of Precipitation, MM = Missing Value Source: NWS Daily Summary

Daily Weather History Graph

Daily Weather History Graph

Search for Another Location

Airport:

Trip Planner

Search our weather history database for the weather conditions in past years. The results will help you decide how hot, cold, wet, or windy it might be!

Date:

Astronomy

Nov. 09, 2012 Rise Set
Actual Time 6:38 AM EST 4:32 PM EST
Civil Twilight 6:07 AM EST 5:02 PM EST
Nautical Twilight 5:33 AM EST 5:37 PM EST
Astronomical Twilight 4:59 AM EST 6:10 PM EST
Moon 1:25 AM EST (11/9) 1:51 PM EST (11/9)
Length of Visible Light 10h 54m
Length of Day
9h 54m
Waning Crescent, 23% of the Moon is Illuminated
Nov 9
Waning Crescent
Nov 13
New
Nov 20
First Quarter
Nov 28
Full
Dec 6
Last Quarter

Hourly Weather History & Observations

Time (EST) Temp. Windchill Dew Point Humidity Pressure Visibility Wind Dir Wind Speed Gust Speed Precip Events Conditions
12:15 AM 33.8 °F 27.7 °F 24.8 °F 70% 29.91 in 10.0 mi NW 6.9 mph - N/A   Overcast
12:35 AM 33.8 °F 27.0 °F 24.8 °F 70% 29.91 in 10.0 mi NW 8.1 mph - N/A   Overcast
12:55 AM 33.8 °F 27.0 °F 26.6 °F 75% 29.91 in 10.0 mi NW 8.1 mph - N/A   Mostly Cloudy
1:15 AM 33.8 °F 27.7 °F 24.8 °F 70% 29.91 in 10.0 mi NW 6.9 mph - N/A   Partly Cloudy
1:35 AM 33.8 °F 27.7 °F 24.8 °F 70% 29.92 in 10.0 mi NW 6.9 mph - N/A   Scattered Clouds
1:55 AM 33.8 °F 25.8 °F 24.8 °F 70% 29.92 in 10.0 mi NW 10.4 mph 16.1 mph N/A   Scattered Clouds
2:15 AM 33.8 °F 26.4 °F 24.8 °F 70% 29.92 in 10.0 mi WNW 9.2 mph - N/A   Partly Cloudy
2:35 AM 32.0 °F 24.8 °F 24.8 °F 75% 29.92 in 10.0 mi NW 8.1 mph - N/A   Clear
2:55 AM 32.0 °F 24.8 °F 24.8 °F 75% 29.92 in 10.0 mi NW 8.1 mph - N/A   Clear
3:15 AM 30.2 °F 22.6 °F 24.8 °F 80% 29.93 in 10.0 mi NW 8.1 mph - N/A   Clear
3:35 AM 30.2 °F 25.4 °F 24.8 °F 80% 29.94 in 10.0 mi NNW 4.6 mph - N/A   Clear
3:55 AM 30.2 °F 24.3 °F 26.6 °F 86% 29.94 in 10.0 mi NW 5.8 mph - N/A   Clear
4:35 AM 30.2 °F 23.4 °F 24.8 °F 80% 29.95 in 10.0 mi NW 6.9 mph - N/A   Clear
4:55 AM 30.2 °F 23.4 °F 26.6 °F 86% 29.96 in 10.0 mi NNW 6.9 mph - N/A   Clear
5:15 AM 30.2 °F 24.3 °F 26.6 °F 86% 29.96 in 10.0 mi NW 5.8 mph - N/A   Clear
5:35 AM 28.4 °F - 26.6 °F 93% 29.96 in 10.0 mi Calm Calm - N/A   Clear
5:55 AM 28.4 °F 24.6 °F 24.8 °F 86% 29.96 in 10.0 mi NNW 3.5 mph - N/A   Clear
6:15 AM 30.2 °F 25.4 °F 26.6 °F 86% 29.98 in 10.0 mi NW 4.6 mph - N/A   Clear
6:35 AM 30.2 °F - 26.6 °F 86% 29.98 in 10.0 mi Calm Calm - N/A   Clear
6:55 AM 28.4 °F - 24.8 °F 86% 29.99 in 10.0 mi Calm Calm - N/A   Clear
7:15 AM 28.4 °F - 26.6 °F 93% 29.99 in 10.0 mi Calm Calm - N/A   Clear
7:35 AM 28.4 °F - 24.8 °F 86% 30.00 in 10.0 mi Calm Calm - N/A   Clear
7:55 AM 30.2 °F - 26.6 °F 86% 30.01 in 10.0 mi Calm Calm - N/A   Clear
8:15 AM 30.2 °F 25.4 °F 24.8 °F 80% 30.02 in 10.0 mi North 4.6 mph - N/A   Clear
8:35 AM 30.2 °F 25.4 °F 26.6 °F 86% 30.03 in 10.0 mi NNE 4.6 mph - N/A   Clear
8:55 AM 32.0 °F 26.4 °F 24.8 °F 75% 30.03 in 10.0 mi NW 5.8 mph - N/A   Clear
9:15 AM 33.8 °F 27.7 °F 24.8 °F 70% 30.03 in 10.0 mi NW 6.9 mph - N/A   Clear
9:55 AM 35.6 °F 28.6 °F 24.8 °F 65% 30.04 in 10.0 mi NW 9.2 mph - N/A   Overcast
10:15 AM 35.6 °F 28.6 °F 21.2 °F 56% 30.04 in 10.0 mi NW 9.2 mph - N/A   Partly Cloudy
10:35 AM 37.4 °F 31.4 °F 24.8 °F 60% 30.04 in 10.0 mi NNW 8.1 mph - N/A   Clear
10:55 AM 37.4 °F 30.3 °F 24.8 °F 60% 30.03 in 10.0 mi NNW 10.4 mph - N/A   Clear
11:15 AM 37.4 °F 32.1 °F 24.8 °F 60% 30.03 in 10.0 mi WNW 6.9 mph - N/A   Clear
11:35 AM 39.2 °F 35.0 °F 24.8 °F 56% 30.02 in 10.0 mi North 5.8 mph - N/A   Clear
11:55 AM 39.2 °F 34.2 °F 24.8 °F 56% 30.02 in 10.0 mi NW 6.9 mph - N/A   Clear
12:15 PM 41.0 °F 36.4 °F 21.2 °F 45% 30.01 in 10.0 mi WNW 6.9 mph - N/A   Clear
12:35 PM 42.8 °F 37.0 °F 21.2 °F 42% 30.01 in 10.0 mi NW 10.4 mph - N/A   Partly Cloudy
12:55 PM 42.8 °F 37.5 °F 21.2 °F 42% 30.01 in 10.0 mi WNW 9.2 mph - N/A   Partly Cloudy
1:15 PM 42.8 °F 37.0 °F 21.2 °F 42% 30.01 in 10.0 mi WNW 10.4 mph - N/A   Clear
1:55 PM 44.6 °F 40.2 °F 21.2 °F 39% 30.01 in 10.0 mi WNW 8.1 mph - N/A   Clear
2:15 PM 44.6 °F 40.2 °F 21.2 °F 39% 30.01 in 10.0 mi WNW 8.1 mph - N/A   Clear
2:35 PM 44.6 °F 39.7 °F 21.2 °F 39% 30.02 in 10.0 mi NW 9.2 mph - N/A   Clear
2:55 PM 44.6 °F 41.4 °F 21.2 °F 39% 30.03 in 10.0 mi NW 5.8 mph - N/A   Clear
3:15 PM 44.6 °F 39.7 °F 21.2 °F 39% 30.03 in 10.0 mi North 9.2 mph - N/A   Clear
3:35 PM 42.8 °F 38.0 °F 23.0 °F 46% 30.04 in 10.0 mi North 8.1 mph - N/A   Clear
3:55 PM 42.8 °F 38.6 °F 21.2 °F 42% 30.04 in 10.0 mi NNW 6.9 mph - N/A   Clear
4:15 PM 42.8 °F 40.1 °F 21.2 °F 42% 30.04 in 10.0 mi WNW 4.6 mph - N/A   Partly Cloudy
4:35 PM 42.8 °F 40.1 °F 21.2 °F 42% 30.05 in 10.0 mi North 4.6 mph - N/A   Mostly Cloudy
4:55 PM 42.8 °F 40.1 °F 21.2 °F 42% 30.05 in 10.0 mi NW 4.6 mph - N/A   Overcast
5:15 PM 41.0 °F - 21.2 °F 45% 30.06 in 10.0 mi Calm Calm - N/A   Overcast
5:35 PM 41.0 °F 39.0 °F 21.2 °F 45% 30.06 in 10.0 mi NNW 3.5 mph - N/A   Overcast
5:55 PM 39.2 °F - 24.8 °F 56% 30.07 in 10.0 mi Calm Calm - N/A   Overcast
6:15 PM 39.2 °F 35.9 °F 23.0 °F 52% 30.07 in 10.0 mi WNW 4.6 mph - N/A   Overcast
6:35 PM 39.2 °F 35.9 °F 26.6 °F 61% 30.07 in 10.0 mi NE 4.6 mph - N/A   Overcast
6:55 PM 39.2 °F 37.0 °F 24.8 °F 56% 30.07 in 10.0 mi NNW 3.5 mph - N/A   Overcast
7:15 PM 41.0 °F 39.0 °F 26.6 °F 57% 30.08 in 10.0 mi NNW 3.5 mph - N/A   Overcast
7:35 PM 41.0 °F 39.0 °F 26.6 °F 57% 30.07 in 10.0 mi NNW 3.5 mph - N/A   Overcast
7:55 PM 41.0 °F 39.0 °F 28.4 °F 61% 30.08 in 10.0 mi NW 3.5 mph - N/A   Overcast
8:15 PM 41.0 °F 39.0 °F 28.4 °F 61% 30.09 in 10.0 mi NNE 3.5 mph - N/A   Overcast
8:35 PM 41.0 °F 39.0 °F 28.4 °F 61% 30.09 in 10.0 mi NNW 3.5 mph - N/A   Overcast
8:55 PM 41.0 °F 39.0 °F 30.2 °F 65% 30.09 in 10.0 mi North 3.5 mph - N/A   Overcast
9:15 PM 41.0 °F 39.0 °F 28.4 °F 61% 30.09 in 10.0 mi North 3.5 mph - N/A   Overcast
9:35 PM 42.8 °F 41.1 °F 32.0 °F 66% 30.09 in 10.0 mi NNW 3.5 mph - N/A   Overcast
10:15 PM 41.0 °F 39.0 °F 32.0 °F 70% 30.10 in 10.0 mi NE 3.5 mph - N/A   Overcast
10:35 PM 41.0 °F 39.0 °F 32.0 °F 70% 30.10 in 10.0 mi North 3.5 mph - N/A   Overcast
10:55 PM 41.0 °F - 32.0 °F 70% 30.10 in 10.0 mi Calm Calm - N/A   Overcast
11:15 PM 41.0 °F 39.0 °F 32.0 °F 70% 30.10 in 10.0 mi NW 3.5 mph - N/A   Overcast
11:35 PM 41.0 °F - 32.0 °F 70% 30.10 in 10.0 mi Calm Calm - N/A   Overcast
11:55 PM 41.0 °F - 32.0 °F 70% 30.11 in 10.0 mi Calm Calm - N/A   Overcast